Location: Unspecified
(32.5099°N, 80.0190°W)
Time: 23:28:45
(UTC-04:00)

CZ-3 Stage 3 - Visible Passes

Search period start: 28 March 2017 00:00
Search period end: 07 April 2017 00:00
Orbit: 398 x 34802 km, 30.6° (Epoch: 27 March)

Date Brightness Start Highest point End Pass type
(mag) Time Alt. Az. Time Alt. Az. Time Alt. Az.
28 Mar 9.4 04:35:29 10° WNW 05:53:25 17° WNW 08:03:38 10° WNW visible
29 Mar 7.7 00:06:41 10° W 02:12:49 66° W 09:23:04 10° SSW visible
29 Mar 7.4 20:23:43 10° SW 20:53:47 69° SE 05:52:56 10° SE visible
30 Mar 6.8 16:57:52 10° SE 00:02:57 30° E 01:51:33 10° ESE visible
31 Mar 9.4 04:25:52 10° WNW 05:43:31 18° WNW 07:53:18 10° WNW visible
31 Mar 7.7 23:57:44 10° W 02:03:24 66° W 09:13:16 10° SSW visible
01 Apr 7.4 20:14:42 10° SW 20:43:56 69° SE 05:43:46 10° SE visible
02 Apr 6.8 16:47:58 10° SE 23:54:04 30° E 01:42:20 10° ESE visible
03 Apr 9.4 04:16:13 10° WNW 05:33:32 18° WNW 07:42:49 10° WNW visible
03 Apr 7.7 23:48:44 10° W 01:53:53 66° W 09:03:23 10° SSW visible
04 Apr 7.4 20:05:39 10° SW 20:34:06 70° SE 05:34:33 10° SE visible
05 Apr 6.7 16:38:08 10° SE 23:45:08 30° E 01:33:04 10° ESE visible
06 Apr 9.4 04:06:31 10° WNW 05:23:31 18° WNW 07:32:12 10° WNW visible
